Location: Hartford
(41.7640°N, 72.6860°W)
Time: 16:32:49
(UTC-04:00)

ISS - Visible Passes

Search period start: 27 August 2016 00:00
Search period end: 06 September 2016 00:00
Orbit: 402 x 406 km, 51.6° (Epoch: 27 August)

Date Brightness Start Highest point End Pass type
(mag) Time Alt. Az. Time Alt. Az. Time Alt. Az.
02 Sep -0.5 05:44:09 10° SSE 05:45:49 13° SE 05:47:30 10° E visible
04 Sep -1.7 05:34:09 10° SSW 05:37:05 30° SE 05:40:01 10° ENE visible
05 Sep -0.9 04:43:17 13° SSE 04:44:47 16° SE 04:46:56 10° E visible
